Temp_Advection
nan nan nan nan nan nan nan nan nan nan nan nan nan nan nan nan nan nan nan nan nan nan nan nan nan nan nan nan nan nan nan nan nan nan nan nan nan nan nan nan nan nan nan
nan -1 -1 -1 -0 -0 0 -0 0 -0 -0 -0 -0 0 -0 0 0 -0 0 0 0 0 0 0 0 0 -0 -0 -0 -0 -0 -0 -0 0 0 0 -0 -0 0 -0 -0 -0 nan
nan -0 -0 -0 -0 -0 0 0 0 0 -0 -0 0 0 0 0 0 -0 -0 0 0 0 0 0 0 0 0 0 0 -0 -0 -0 -0 0 0 -0 0 0 -0 -0 0 0 nan
nan 1 0 0 -0 -0 -0 0 0 0 0 -0 0 0 0 0 0 0 0 0 0 0 0 0 0 0 0 0 0 0 0 0 0 0 -0 0 0 -0 -0 -0 -0 0 nan
nan 0 0 -0 -0 -0 -0 0 0 0 0 0 0 0 0 0 0 0 0 0 0 0 0 0 0 0 0 0 -0 -0 0 0 0 -0 -0 0 0 -0 -0 -0 -1 -0 nan
nan 0 -0 -1 -1 -0 -0 0 0 0 0 0 0 0 0 0 0 0 0 0 0 -0 0 0 0 0 0 0 0 -0 0 0 0 -0 0 0 0 -0 -0 -0 -0 -0 nan
nan -0 -0 -0 -0 -0 0 -0 0 0 0 0 0 0 0 0 0 0 -0 0 0 0 -0 0 0 0 0 0 0 0 -0 0 -0 -0 0 0 -0 -0 0 0 0 0 nan
nan 0 1 1 1 1 0 -0 0 0 0 0 0 0 0 0 0 0 0 0 0 0 0 0 -0 -0 -0 0 0 0 -0 -0 -0 0 0 0 0 -0 0 0 0 -0 nan
nan 0 0 1 1 1 1 0 0 0 0 0 0 0 0 0 0 0 0 0 0 0 0 0 0 -0 -0 -0 -0 -0 -0 -0 -0 0 0 0 -0 -0 0 -0 -0 -0 nan
nan 0 0 1 1 1 0 0 0 0 0 0 0 0 0 0 0 0 0 0 0 0 0 0 0 0 0 0 0 0 0 0 0 -0 -0 -0 -0 -0 -0 -0 -0 -0 nan
nan 0 1 1 1 1 0 0 0 0 0 0 1 0 0 0 0 0 0 0 0 0 -0 -0 0 0 0 0 0 0 0 0 0 0 0 -0 -0 -0 -0 -0 -0 -0 nan
nan 1 1 1 1 0 0 0 0 0 0 0 0 0 0 0 0 0 0 0 0 0 -0 0 0 0 -0 -0 -0 0 0 0 0 0 0 -0 -0 -0 -0 -0 -0 -0 nan
nan 1 0 0 0 0 0 0 -0 -0 -0 -0 -0 -0 0 1 1 0 0 0 0 -0 -0 -0 0 0 0 0 0 0 0 0 0 0 0 0 0 -0 0 -0 -0 -0 nan
nan 0 1 1 1 1 -0 -0 0 -0 -0 -0 0 0 0 0 0 0 0 0 0 -0 0 0 0 0 0 0 0 0 0 0 0 0 0 0 0 0 -0 -0 -0 -0 nan
nan 1 1 0 0 0 1 1 1 0 0 1 1 1 0 0 0 0 0 0 0 0 0 0 0 0 0 0 0 0 0 0 0 0 0 0 0 0 0 -0 0 0 nan
nan 1 0 0 1 0 0 0 1 1 1 1 1 -0 0 0 0 0 0 0 0 0 0 0 0 1 1 1 1 1 0 0 0 0 0 0 -0 -0 0 0 0 0 nan
nan 1 1 2 2 0 1 2 1 1 1 1 1 1 1 0 2 1 0 0 0 0 0 0 1 1 1 1 1 1 0 0 0 0 0 0 0 -0 0 0 -0 -0 nan
nan 0 2 1 1 -0 1 2 1 1 0 1 1 1 1 2 2 0 -0 1 -0 -0 -0 0 1 1 1 1 1 1 1 0 0 0 0 0 0 0 0 0 0 0 nan
nan -0 -1 -0 -0 2 3 2 1 -0 -0 1 1 1 1 2 1 -1 0 0 0 -0 0 1 1 1 1 1 1 1 1 1 1 0 0 0 0 0 0 0 0 0 nan
nan 1 -0 -1 -0 2 2 1 1 -0 1 2 1 2 2 2 0 -0 1 1 1 0 0 1 1 1 1 1 1 1 1 1 1 1 0 0 0 0 0 0 0 0 nan
nan 1 -0 -0 -0 1 1 1 0 1 2 0 0 1 1 1 0 -0 0 1 -0 -1 -0 2 1 1 1 1 1 1 1 1 1 1 0 0 0 0 0 0 0 0 nan
nan 0 0 0 -0 0 0 1 1 1 -0 0 0 -0 -0 0 0 -0 0 -0 -0 1 1 1 -0 1 -0 0 1 -1 0 0 0 0 0 0 0 0 0 0 0 0 nan
nan -1 0 0 0 -0 0 0 0 0 0 0 0 -0 -0 1 0 0 0 1 2 0 -1 -0 -0 1 0 0 0 0 -1 -1 -0 1 1 0 0 0 0 0 0 0 nan
nan -2 -1 -1 -0 -0 -0 -0 0 1 0 -0 1 0 0 0 0 0 0 1 0 -1 1 0 2 2 2 1 -1 -0 -1 -0 -1 -1 0 0 1 1 0 0 0 0 nan
nan -1 -2 -1 -1 -1 -1 0 1 0 0 0 1 0 0 1 0 0 0 0 1 0 2 1 2 1 0 0 -1 -0 -0 0 -1 -1 -1 -0 -0 0 0 0 0 0 nan
nan nan nan nan nan nan nan nan nan nan nan nan nan nan nan nan nan nan nan nan nan nan nan nan nan nan nan nan nan nan nan nan nan nan nan nan nan nan nan nan nan nan nan
Wind_Speed
35 34 34 33 32 30 28 26 24 21 20 18 17 15 15 14 13 14 14 15 15 15 15 14 13 12 12 11 11 11 11 11 11 10 9 11 11 9 8 10 10 11 12
33 35 35 35 34 32 30 27 25 22 20 18 18 17 16 16 15 15 16 15 15 15 15 14 13 12 12 11 11 11 10 9 8 6 8 11 11 10 8 8 10 11 11
37 37 35 36 35 33 31 28 25 23 21 19 18 18 18 17 17 16 16 16 16 15 14 13 12 12 11 11 11 10 8 5 3 6 6 7 8 7 6 11 12 9 10
35 36 35 36 36 33 31 29 27 25 23 21 20 19 19 18 17 17 17 16 15 14 13 12 12 11 11 11 11 9 5 4 3 4 3 6 8 8 7 7 12 9 8
35 34 33 33 33 33 31 29 28 26 25 23 21 20 19 19 18 18 17 17 15 13 12 12 12 11 11 11 10 7 5 4 2 1 4 7 8 7 7 6 10 10 9
28 32 31 30 31 32 32 30 28 27 25 24 22 21 20 20 19 18 17 17 15 14 14 14 13 12 11 10 10 8 6 4 2 2 5 8 6 6 4 4 4 9 9
24 27 28 28 29 31 31 30 28 26 25 24 23 22 21 20 19 18 17 15 14 14 14 14 13 13 12 11 10 9 7 4 2 2 6 7 5 5 4 5 4 5 6
21 29 30 30 30 30 30 30 28 27 25 24 22 22 21 20 19 18 17 15 12 12 13 14 14 14 13 13 12 9 8 5 2 4 6 4 4 4 3 4 6 6 7
23 29 32 33 31 30 30 30 28 27 25 24 23 21 20 19 19 18 17 15 13 12 14 14 14 13 13 13 12 11 8 4 2 3 4 3 4 4 5 9 9 8 8
25 30 33 33 32 32 32 30 29 27 26 24 23 22 21 20 19 19 17 16 15 14 15 15 15 14 14 13 11 10 8 5 3 2 1 2 4 5 6 7 7 7 8
28 32 33 34 34 34 33 32 29 28 27 26 25 24 23 23 22 21 19 17 16 16 16 16 16 15 15 15 14 12 10 8 6 3 1 1 2 3 5 6 6 6 6
30 35 36 36 36 36 35 34 33 31 30 29 28 26 26 25 23 22 21 19 18 18 19 18 17 17 16 16 16 13 11 8 5 3 2 1 1 2 4 5 5 5 5
29 34 37 38 37 37 37 37 36 35 34 33 31 30 28 25 26 25 24 23 22 22 22 21 20 18 17 16 16 15 13 10 6 4 3 2 1 1 3 4 5 6 7
33 34 36 38 39 39 40 41 41 41 40 39 37 34 31 30 28 27 26 24 24 24 23 21 20 20 19 17 16 14 12 10 7 6 6 5 4 1 3 4 6 6 7
32 35 37 38 39 41 44 44 44 43 42 41 38 36 33 32 30 28 26 26 25 25 24 23 22 22 21 19 18 15 13 11 9 8 8 8 8 4 1 4 5 4 4
33 36 36 39 39 42 46 47 48 47 45 42 40 39 36 35 31 28 28 28 27 26 24 23 23 23 21 20 19 17 15 12 10 9 9 10 10 9 4 3 3 3 3
38 39 39 38 41 42 45 48 50 49 48 45 44 41 39 37 35 30 29 29 28 27 26 26 26 25 23 22 20 18 16 14 12 10 10 11 11 8 5 3 1 1 1
40 44 44 43 43 45 46 50 51 52 50 47 46 43 43 42 37 33 31 32 30 29 28 29 29 28 26 24 22 20 18 15 13 11 11 11 11 10 8 5 3 1 1
29 35 43 44 44 46 49 51 51 51 52 52 51 49 46 45 41 39 34 34 33 34 33 31 31 30 28 26 23 20 19 16 14 12 12 12 12 10 8 7 5 3 2
20 25 31 36 41 46 47 50 51 51 54 53 53 53 50 47 44 41 37 37 38 38 34 35 33 31 28 27 25 23 20 17 14 13 12 12 11 11 9 7 5 4 3
12 15 24 31 35 41 48 51 55 56 51 51 54 55 53 49 46 46 44 38 38 40 36 37 35 34 31 31 28 25 21 18 16 15 14 13 13 12 10 8 6 5 4
19 14 19 28 32 41 44 48 50 54 55 53 54 57 55 53 51 50 48 46 45 49 46 44 39 39 37 35 35 32 21 20 21 20 18 15 14 13 11 9 8 7 5
21 20 23 25 25 35 41 45 45 45 46 51 54 57 60 59 55 53 53 53 51 50 48 48 43 48 45 41 40 26 13 13 26 25 23 19 17 15 13 10 9 8 7
25 22 22 22 25 27 30 40 47 50 51 54 55 56 59 61 59 58 57 56 58 56 55 55 48 51 51 48 46 42 22 14 16 17 27 24 21 18 15 12 11 8 7
23 24 25 22 19 20 28 35 40 49 54 53 51 54 55 59 61 58 61 62 63 63 61 60 57 55 53 49 48 48 38 21 17 14 23 32 28 23 19 14 11 9 8
23 22 20 21 24 25 25 26 32 27 41 53 51 58 57 56 59 61 62 66 68 69 68 61 56 55 53 53 47 48 47 43 30 20 14 29 32 29 24 19 16 13 11
Wind_Direction
186 177 182 180 181 183 189 190 187 187 183 178 177 179 176 174 170 162 154 147 145 147 150 149 150 148 141 141 136 131 119 115 105 98 83 83 84 83 73 62 62 59 59
183 177 181 182 184 187 191 191 189 188 186 183 181 179 172 168 164 156 152 149 150 150 151 151 153 149 149 147 144 139 132 130 130 110 86 63 59 61 58 61 64 52 48
185 177 181 184 186 189 193 194 194 192 192 189 184 177 173 169 163 159 156 156 156 155 156 157 158 155 157 150 149 149 152 134 102 83 78 33 30 41 65 69 77 65 51
184 180 183 184 187 190 196 196 195 194 193 190 184 179 175 171 167 165 165 166 164 162 163 166 165 165 170 161 157 164 167 153 131 100 35 20 30 55 76 81 83 92 83
185 186 186 185 188 192 198 200 195 193 191 188 185 182 179 177 175 174 174 172 168 165 171 178 175 176 182 172 163 160 162 163 155 53 16 22 30 73 90 88 89 94 103
187 191 189 189 192 196 200 201 198 194 191 187 187 185 184 182 182 180 179 178 172 171 180 185 183 180 188 186 174 173 172 181 203 352 14 27 44 61 60 80 82 82 96
184 194 197 199 199 200 200 202 200 196 193 190 189 189 188 187 187 187 188 187 180 179 190 192 188 182 188 190 182 182 190 210 226 338 13 28 53 57 69 39 37 59 86
192 195 198 202 205 202 201 202 202 199 196 194 194 193 192 193 193 195 194 192 196 190 198 200 197 186 190 188 181 183 187 197 260 351 9 32 36 38 54 42 36 40 64
201 204 201 203 204 203 202 204 204 203 201 199 198 198 197 198 199 199 200 200 199 195 198 201 205 199 197 197 189 191 195 211 268 331 356 31 33 18 35 26 25 33 37
209 208 209 209 205 203 204 206 206 206 207 206 204 205 204 202 202 204 205 205 201 198 201 200 196 192 191 199 202 200 202 213 243 288 356 28 18 12 20 27 37 31 41
215 214 215 214 211 207 206 207 208 210 211 212 210 209 210 208 206 207 209 205 203 199 203 201 199 199 196 197 203 204 202 204 213 237 154 56 41 29 28 23 36 36 36
219 216 217 218 216 212 210 209 210 211 213 215 216 216 216 217 214 210 210 207 205 200 200 206 206 207 205 205 204 205 211 222 233 232 193 135 316 347 25 23 31 48 50
228 220 220 221 222 220 214 213 214 214 215 217 218 220 222 219 216 213 211 207 204 201 203 208 211 212 211 210 207 206 206 212 223 229 193 178 210 343 45 46 50 60 63
233 228 226 225 225 224 221 220 219 219 220 220 219 221 222 218 217 216 214 211 209 205 208 212 215 214 208 206 211 213 211 214 218 209 191 180 178 209 3 57 68 70 68
242 236 232 230 230 226 225 224 224 224 225 225 223 223 223 218 218 219 217 213 212 211 212 214 216 215 209 205 206 211 218 217 210 200 191 181 183 186 155 84 85 70 56
249 245 239 237 235 230 229 226 227 227 229 228 227 227 228 220 219 221 222 218 214 214 216 217 219 217 214 210 208 209 215 216 207 196 188 187 182 186 176 118 99 80 70
257 250 242 242 237 233 232 231 230 231 232 231 229 230 233 227 222 220 223 224 219 215 216 216 216 218 216 211 210 210 212 210 205 197 192 192 198 213 212 198 243 56 53
263 259 250 244 241 237 235 233 233 234 234 234 234 234 233 233 227 221 219 225 223 218 219 216 215 215 216 214 211 208 208 207 204 199 194 191 199 209 215 210 220 227 338
264 261 257 252 250 244 238 238 238 239 239 237 237 236 236 235 231 227 221 222 222 221 215 218 216 217 216 213 211 206 204 206 208 204 199 196 199 208 213 204 211 219 206
271 271 266 259 258 254 247 241 240 240 243 240 239 239 237 240 233 230 225 223 224 220 216 214 219 216 218 215 204 200 198 199 202 207 206 205 204 208 205 198 195 197 192
294 270 280 269 268 254 250 247 244 242 240 242 242 241 241 239 241 232 232 225 227 224 219 219 215 218 209 211 201 191 190 197 201 204 206 208 209 209 207 203 193 185 182
347 287 252 257 264 259 259 252 250 247 247 247 247 246 246 243 239 229 230 226 222 225 218 215 214 212 212 209 203 190 183 196 201 203 203 206 208 211 209 209 198 199 204
6 358 338 294 268 264 265 261 255 245 240 247 246 248 250 244 237 235 233 227 225 226 220 218 214 219 213 205 209 194 178 200 200 203 202 207 207 211 210 211 208 211 214
16 9 349 344 326 273 262 255 257 254 248 244 248 250 249 250 244 235 235 230 229 224 222 221 219 220 217 209 203 209 207 204 177 189 203 207 207 209 212 212 212 218 218
354 359 357 351 325 310 288 274 263 260 250 252 250 243 245 251 251 242 235 234 230 224 224 221 216 214 218 217 213 208 207 207 195 179 192 202 205 207 210 211 215 219 216
351 353 348 337 326 326 328 318 272 276 259 249 245 245 245 245 249 248 241 239 232 225 222 221 222 218 219 220 219 219 215 211 201 194 182 202 206 204 205 209 214 219 216
Height
1486 1490 1495 1499 1502 1505 1508 1510 1513 1517 1520 1522 1523 1524 1526 1528 1530 1532 1534 1535 1536 1538 1538 1540 1541 1542 1543 1543 1544 1545 1546 1547 1546 1546 1546 1546 1546 1547 1547 1546 1546 1546 1546
1485 1489 1493 1498 1503 1507 1509 1510 1512 1515 1519 1521 1523 1524 1526 1528 1530 1531 1534 1536 1537 1538 1539 1540 1541 1542 1543 1544 1545 1546 1547 1547 1547 1547 1548 1548 1548 1548 1547 1547 1547 1547 1547
1482 1486 1491 1496 1501 1506 1509 1510 1513 1515 1518 1521 1523 1524 1525 1528 1529 1531 1534 1536 1538 1539 1539 1540 1541 1543 1544 1545 1546 1547 1547 1548 1549 1549 1549 1549 1548 1547 1547 1548 1548 1548 1548
1485 1488 1491 1496 1500 1505 1509 1510 1512 1515 1517 1520 1522 1524 1525 1527 1529 1532 1534 1536 1538 1539 1540 1540 1541 1543 1544 1545 1547 1547 1548 1549 1550 1550 1550 1549 1548 1547 1547 1548 1548 1549 1549
1485 1490 1493 1498 1502 1505 1510 1512 1512 1515 1517 1520 1522 1524 1525 1527 1529 1532 1534 1535 1538 1539 1540 1540 1541 1543 1544 1545 1547 1548 1550 1550 1551 1550 1550 1550 1549 1548 1548 1548 1548 1548 1548
1487 1491 1495 1499 1502 1506 1510 1513 1514 1514 1517 1519 1522 1523 1525 1527 1529 1532 1534 1535 1537 1539 1540 1540 1541 1543 1544 1545 1546 1547 1550 1551 1551 1551 1551 1550 1549 1549 1549 1548 1547 1547 1548
1486 1492 1495 1498 1501 1505 1509 1513 1515 1516 1517 1518 1521 1523 1525 1526 1529 1530 1532 1535 1537 1538 1538 1539 1540 1542 1544 1545 1546 1546 1549 1551 1552 1552 1552 1551 1550 1549 1549 1548 1548 1548 1548
1488 1490 1493 1497 1500 1503 1507 1511 1515 1516 1518 1519 1521 1523 1524 1527 1528 1530 1531 1534 1536 1538 1537 1538 1538 1541 1543 1544 1545 1546 1548 1551 1552 1552 1551 1551 1550 1550 1549 1549 1548 1549 1548
1486 1490 1493 1495 1498 1502 1506 1509 1514 1516 1518 1519 1521 1522 1524 1526 1528 1529 1531 1532 1535 1536 1536 1537 1538 1540 1542 1544 1545 1546 1548 1550 1551 1552 1552 1551 1551 1550 1549 1549 1548 1548 1548
1488 1489 1491 1495 1497 1500 1503 1508 1511 1515 1517 1519 1519 1520 1523 1524 1526 1529 1530 1532 1533 1535 1535 1536 1537 1539 1542 1544 1545 1546 1547 1549 1550 1551 1551 1551 1550 1550 1549 1549 1549 1549 1548
1487 1490 1492 1494 1495 1498 1501 1505 1509 1512 1514 1517 1517 1518 1520 1522 1523 1526 1529 1530 1532 1533 1534 1535 1537 1538 1540 1542 1544 1545 1546 1548 1549 1550 1550 1549 1549 1549 1549 1549 1549 1549 1548
1484 1486 1489 1492 1494 1497 1499 1502 1504 1508 1511 1513 1515 1517 1518 1520 1522 1523 1526 1528 1530 1531 1532 1534 1536 1537 1538 1540 1542 1544 1546 1547 1548 1549 1550 1550 1549 1549 1550 1549 1549 1550 1549
1480 1482 1483 1486 1490 1493 1496 1499 1501 1503 1505 1507 1510 1512 1515 1518 1519 1521 1523 1524 1526 1528 1530 1532 1533 1535 1537 1539 1541 1542 1544 1546 1547 1548 1549 1549 1549 1549 1549 1549 1549 1548 1549
1478 1479 1481 1483 1484 1488 1492 1492 1493 1494 1495 1498 1501 1505 1510 1513 1516 1518 1520 1523 1524 1526 1528 1530 1532 1533 1535 1537 1539 1541 1543 1545 1546 1547 1548 1549 1548 1548 1548 1548 1548 1549 1549
1474 1476 1479 1481 1481 1482 1483 1489 1491 1492 1494 1496 1498 1501 1505 1508 1512 1516 1518 1520 1523 1525 1527 1528 1530 1532 1533 1534 1537 1539 1541 1543 1544 1546 1547 1547 1548 1548 1548 1548 1549 1549 1549
1469 1471 1474 1476 1478 1480 1481 1482 1484 1487 1491 1494 1497 1499 1501 1504 1507 1511 1515 1517 1519 1523 1526 1527 1528 1530 1532 1533 1535 1537 1539 1541 1543 1544 1545 1545 1547 1547 1548 1549 1549 1550 1550
1466 1468 1468 1469 1473 1474 1475 1478 1481 1484 1485 1488 1490 1492 1496 1500 1502 1505 1509 1514 1517 1519 1523 1525 1526 1529 1530 1532 1533 1535 1538 1539 1541 1543 1544 1545 1545 1545 1547 1549 1549 1550 1550
1463 1464 1467 1469 1471 1472 1471 1473 1475 1477 1481 1484 1487 1489 1490 1494 1497 1499 1501 1508 1512 1513 1518 1520 1523 1526 1528 1530 1531 1532 1535 1538 1540 1541 1542 1544 1545 1545 1546 1548 1549 1549 1549
1454 1456 1458 1462 1465 1465 1471 1473 1474 1474 1474 1474 1477 1480 1485 1487 1490 1493 1494 1501 1505 1506 1506 1516 1518 1521 1525 1527 1529 1531 1533 1536 1538 1539 1541 1542 1543 1545 1546 1547 1548 1549 1549
1449 1453 1456 1455 1459 1461 1463 1464 1466 1467 1467 1470 1470 1472 1476 1481 1487 1488 1488 1493 1499 1498 1501 1502 1514 1517 1521 1525 1526 1529 1530 1532 1535 1537 1538 1540 1541 1543 1545 1545 1546 1547 1548
1446 1449 1452 1453 1452 1452 1453 1454 1454 1454 1461 1462 1464 1466 1468 1471 1474 1480 1483 1485 1493 1494 1489 1501 1505 1512 1514 1518 1522 1525 1528 1530 1531 1534 1536 1537 1538 1540 1542 1543 1544 1546 1547
1449 1448 1447 1448 1448 1449 1448 1447 1447 1450 1450 1451 1453 1454 1457 1461 1463 1465 1470 1476 1480 1486 1485 1489 1492 1502 1505 1510 1513 1518 1523 1527 1527 1529 1532 1535 1535 1537 1539 1542 1542 1543 1545
1450 1448 1448 1449 1447 1446 1444 1444 1446 1445 1442 1443 1444 1444 1444 1447 1451 1455 1458 1462 1467 1473 1474 1479 1474 1489 1492 1498 1505 1507 1513 1513 1519 1524 1526 1530 1531 1534 1537 1539 1540 1541 1542
1451 1450 1449 1446 1443 1442 1440 1438 1437 1436 1434 1430 1431 1435 1434 1435 1439 1444 1447 1449 1452 1458 1460 1468 1465 1474 1480 1483 1493 1499 1499 1503 1507 1516 1521 1524 1527 1529 1532 1535 1538 1539 1541
1449 1447 1447 1444 1442 1440 1438 1435 1432 1429 1427 1427 1424 1423 1424 1426 1427 1430 1434 1436 1437 1441 1448 1454 1454 1460 1471 1477 1477 1484 1489 1496 1499 1502 1507 1514 1520 1524 1527 1531 1534 1536 1537
1449 1446 1444 1442 1438 1436 1434 1430 1426 1423 1418 1416 1414 1410 1412 1413 1418 1418 1420 1422 1421 1423 1426 1436 1447 1450 1457 1466 1467 1474 1476 1482 1488 1493 1499 1507 1512 1517 1522 1526 1530 1532 1534